Regional Weather Roundup
Issued by NWS

Home | Current Version | Previous Version | Graphics & Text | Print | Product List | Glossary On
Versions: 1 2 3 4 5 6 7 8 9 10 11 12 13 14 15 16 17 18 19 20 21 22 23 24 25 26 27 28 29 30 31 32 33 34 35 36 37 38 39 40 41 42 43 44 45 46 47 48
000
ASUS45 KCYS 210310
RWRWY

WYOMING REGIONAL WEATHER ROUNDUP
NATIONAL WEATHER SERVICE CHEYENNE WY
800 PM MST SAT DEC 20 2014

NOTE:  "FAIR" INDICATES FEW OR NO CLOUDS BELOW 12,000 FEET
WITH NO SIGNIFICANT WEATHER AND/OR OBSTRUCTIONS TO VISIBILITY.

WYZ001-210400-
YELLOWSTONE NATIONAL PARK

CITY           SKY/WX    TMP DP  RH WIND       PRES   REMARKS
LK YELLOWSTONE   N/A     26  21  81 W8        29.88F WCI  18
W YELLOWSTONE  NOT AVBL

$$
WYZ002>013-054>058-071-098>099-210400-
NORTHERN WYOMING

CITY           SKY/WX    TMP DP  RH WIND       PRES   REMARKS
JACKSON        CLOUDY    32  28  86 S14       29.92S WCI  22
CODY           FAIR      34  23  64 SE14      29.78F WCI  24
GREYBULL       FAIR      15  13  91 CALM      29.83F
WORLAND        FAIR      12  10  92 CALM      29.83F
SHERIDAN       FAIR      23  18  81 CALM      29.77F
BUFFALO        FAIR      27  19  72 SW5       29.79F WCI  22
GILLETTE       FAIR      33  26  75 S10       29.79F WCI  25
HULETT           N/A    N/A N/A N/A MISG        N/A
NEWCASTLE      FAIR      34  27  75 SE7       29.85S WCI  28

$$
WYZ014>020-022>026-101>103-210400-
CENTRAL WYOMING

CITY           SKY/WX    TMP DP  RH WIND       PRES   REMARKS
BIG PINEY      CLOUDY    25  20  81 E6        29.96S WCI  18
PINEDALE       MOCLDY    23  21  93 NW5       29.97S WCI  17
DUBOIS         NOT AVBL
LANDER         FAIR      18  15  88 NE3       29.84F
RIVERTON       FAIR      17  15  92 NE6       29.87F WCI   9
CASPER         FAIR      30  24  78 SW17      29.87S WCI  18
DOUGLAS        CLOUDY    37  26  64 W6        29.87F WCI  32

$$
WYZ021-027>030-104>119-210400-
SOUTHERN WYOMING

CITY           SKY/WX    TMP DP  RH WIND       PRES   REMARKS
EVANSTON       CLOUDY    30  29  96 SW12      30.02S WCI  20
KEMMERER       CLOUDY    30  28  93 SW8       30.00R WCI  23
FORT BRIDGER   CLOUDY    33  31  91 W17       30.03S WCI  22
ROCK SPRINGS   CLOUDY    30  27  88 SW18      29.98F WCI  18
DIXON          FLURRIES  32  28  86 SW14G21   30.05S WCI  22
RAWLINS        MOCLDY    29  24  82 SW21      29.94F WCI  16
SARATOGA       CLOUDY    30  27  86 SW17      29.97S WCI  18
LARAMIE        MOCLDY    27  20  75 SW15      29.91F WCI  15
CHEYENNE       CLOUDY    33  18  53 W8        29.93S WCI  26
TORRINGTON     FAIR     N/A N/A N/A W8        29.90F
PINE BLUFFS    FAIR      34  21  60 S9        29.93F WCI  26

$$


USA.gov is the U.S. government's official web portal to all federal, state and local government web resources and services.